Theta_e
327 328 330 333 336 335 335 339 342 344 342 342 342 344 343 345 346 346 345 346 344 339 339 344 346 344 343 343 341 341 345 346 346
325 327 329 332 333 333 334 335 335 343 344 345 342 335 334 338 347 345 346 347 348 345 345 347 347 347 345 344 343 341 339 338 339
323 327 329 331 336 338 338 334 335 336 335 330 333 334 334 334 333 334 343 349 349 350 348 347 347 346 344 345 344 346 343 344 346
324 326 328 330 336 340 342 336 334 333 332 332 334 334 335 334 334 335 337 347 344 349 347 346 347 346 345 347 348 348 348 347 348
327 328 328 329 335 337 334 337 336 333 332 332 333 333 334 333 335 336 336 342 346 347 344 345 347 346 342 340 341 342 340 340 341
325 326 326 325 331 333 334 331 331 333 333 332 333 332 333 335 334 335 336 340 343 342 341 340 340 341 341 340 338 338 339 339 339
324 322 326 323 325 329 332 333 334 332 333 335 331 331 332 333 337 338 337 340 338 337 336 335 336 337 337 336 336 336 337 338 338
321 322 325 323 323 326 331 333 334 334 332 333 333 330 331 331 336 337 337 335 335 335 335 335 335 335 335 335 335 335 336 334 333
321 326 323 324 327 329 331 331 332 333 332 333 334 333 333 335 333 333 333 333 335 335 335 335 334 334 336 336 334 331 331 334 332
324 327 327 328 329 330 329 326 326 325 325 327 326 326 325 326 328 328 328 330 330 331 331 332 332 332 332 330 330 327 328 332 331
325 329 324 322 322 322 322 323 323 323 322 321 321 321 322 322 323 323 324 324 323 325 327 326 326 326 327 326 327 325 325 328 329
323 319 318 319 319 319 319 317 317 316 314 315 316 316 316 317 317 318 319 317 318 320 319 319 320 321 322 322 323 322 322 323 326
318 317 316 316 316 316 315 315 316 314 313 312 311 312 313 313 313 313 313 313 314 315 314 313 314 314 316 317 319 319 319 320 324
315 314 313 313 312 311 311 313 313 310 309 308 310 311 310 310 309 310 310 309 310 311 310 309 310 311 312 314 316 318 317 317 321
313 311 311 310 308 308 309 310 310 308 308 309 309 308 308 308 308 308 308 307 307 307 307 306 307 308 309 312 314 314 315 315 315
310 310 309 309 307 307 307 308 309 306 307 307 306 305 304 305 306 306 306 304 304 303 304 304 304 305 306 307 308 309 311 311 312
308 308 308 307 305 305 304 305 306 307 307 306 305 303 303 303 303 304 303 303 303 302 302 302 303 303 302 303 305 306 308 308 309
306 306 305 305 304 304 304 305 305 306 306 304 303 303 303 303 303 302 302 303 302 302 304 303 302 301 302 301 301 303 304 303 305
304 304 304 303 303 304 304 305 305 306 306 305 303 302 302 302 302 301 301 300 300 302 301 300 299 298 299 301 301 299 298 297 297
305 304 303 303 303 304 305 304 304 306 306 305 304 302 302 303 302 300 300 300 298 297 300 300 299 298 297 297 297 296 295 295 296
Wind_Speed
7 7 8 10 5 6 7 5 7 6 7 9 5 1 4 4 6 6 7 6 5 4 4 4 3 4 4 4 3 4 4 3 4
7 11 11 7 8 7 6 4 6 5 9 7 12 11 7 9 8 7 7 7 4 5 5 3 4 4 4 5 3 4 5 4 5
7 9 11 12 8 6 4 6 6 10 14 15 8 9 5 6 7 13 19 5 5 6 5 3 5 3 3 2 2 4 3 4 3
5 9 9 9 7 5 6 12 7 7 10 12 9 9 6 6 6 11 19 14 7 5 3 3 3 4 3 1 1 2 2 4 5
6 9 12 8 8 10 9 7 5 3 6 5 7 7 5 7 9 13 17 17 9 4 3 3 3 3 4 3 2 2 1 3 4
4 9 8 7 5 7 9 8 7 4 1 2 2 3 9 12 8 5 11 17 10 5 5 4 4 4 3 3 2 1 2 3 4
4 4 3 6 4 3 3 3 2 5 4 2 2 2 8 8 8 1 13 15 9 5 5 6 5 4 4 3 2 2 4 4 4
4 3 1 5 4 2 4 4 4 5 5 5 4 4 2 5 5 6 8 9 7 4 5 4 4 4 4 4 4 4 4 4 5
3 2 6 4 4 5 4 3 3 4 8 7 5 4 4 5 4 1 5 5 4 3 3 3 3 4 4 4 3 5 8 7 6
5 5 3 3 4 5 5 7 8 10 9 10 11 10 9 8 7 6 7 7 8 7 6 5 4 4 4 5 5 8 10 13 8
4 5 7 7 6 6 8 10 11 10 11 11 10 9 9 8 6 6 6 5 5 4 3 4 4 5 6 6 7 11 13 15 9
6 7 8 8 8 9 10 11 9 11 9 7 6 7 6 5 5 6 7 8 8 7 7 7 7 7 8 8 9 12 13 13 9
10 9 8 10 11 9 9 6 6 9 7 7 8 8 8 7 8 8 8 8 8 6 6 7 7 9 8 11 10 13 14 13 8
10 9 10 9 9 7 5 4 6 9 8 9 6 6 6 7 6 6 6 6 4 7 8 8 7 9 9 9 9 11 13 15 9
12 11 9 7 7 6 5 5 6 7 7 4 5 5 5 5 6 6 6 7 6 7 7 8 9 9 10 8 8 12 13 13 13
8 9 8 6 8 7 4 4 5 6 3 4 3 3 3 3 1 3 4 5 6 6 6 7 8 7 8 9 9 8 13 12 14
6 5 5 5 7 7 5 4 4 4 3 3 3 2 2 2 3 5 4 5 5 6 6 7 8 9 10 10 10 9 9 7 7
5 5 4 3 5 4 4 3 3 4 5 5 4 2 1 3 3 4 4 5 5 6 8 8 10 10 11 12 11 11 13 12 11
5 5 3 3 3 3 2 2 2 2 2 1 1 3 3 3 3 4 4 5 7 6 11 16 16 17 13 11 16 19 18 18 14
6 5 5 4 4 3 2 3 4 3 3 2 3 4 5 4 5 5 6 8 9 11 9 15 16 15 15 15 17 20 22 18 15
Wind_Direction
180 147 76 83 76 75 99 149 194 209 182 217 215 160 314 276 216 205 220 219 222 220 228 255 174 190 220 249 263 255 234 230 230
80 79 86 88 67 67 76 72 53 143 165 115 91 92 64 35 338 267 235 224 205 217 209 231 241 227 192 199 221 218 219 223 241
71 91 93 100 82 67 58 95 90 81 93 111 122 119 129 89 30 19 331 235 199 233 232 191 217 172 177 262 260 271 244 268 264
72 84 105 116 115 82 70 114 118 121 106 129 170 165 205 177 104 9 352 289 264 243 183 206 176 155 157 218 313 321 278 291 297
59 76 114 123 138 118 110 141 133 95 86 148 196 212 221 38 64 62 326 294 261 204 168 189 198 136 129 128 90 60 1 319 317
42 88 121 126 136 147 153 165 158 108 37 235 247 108 95 81 74 29 237 282 268 165 163 140 133 128 148 146 151 252 299 300 299
24 34 100 114 151 192 203 272 240 167 172 225 297 280 64 83 68 171 250 263 244 166 167 163 161 175 189 199 199 228 252 250 268
307 349 210 136 135 135 332 305 204 203 174 155 181 63 37 90 118 176 228 239 233 203 192 193 189 190 214 214 220 240 244 268 276
226 258 239 152 159 89 36 51 115 96 92 115 138 97 30 359 27 248 250 270 292 304 312 319 316 286 281 279 272 295 301 304 285
182 209 199 48 17 38 54 36 55 46 44 48 51 58 53 46 37 29 10 7 13 2 350 339 319 316 314 296 289 280 283 291 290
168 99 81 52 51 61 63 76 77 75 59 56 57 48 42 34 25 27 20 24 18 356 354 349 334 321 316 307 301 297 297 297 292
85 91 80 86 79 70 71 65 76 85 70 76 73 69 55 42 38 28 26 19 5 1 356 346 339 325 320 310 301 291 292 300 298
95 91 89 83 74 71 73 72 85 88 89 77 55 38 33 31 26 23 15 359 346 336 338 320 318 320 306 298 300 292 297 302 290
93 89 79 71 75 84 85 73 78 74 69 62 57 49 47 39 26 12 359 342 326 332 330 319 310 296 297 291 297 298 290 292 300
118 114 107 101 94 78 53 57 85 94 89 80 69 59 49 33 16 3 344 329 320 312 301 295 293 297 303 306 281 284 281 286 293
116 121 124 124 122 114 105 113 117 108 125 104 118 103 84 63 307 257 248 254 272 288 291 282 291 289 274 274 283 281 272 276 288
115 112 114 126 127 129 132 143 127 115 132 144 139 123 26 346 307 310 314 310 302 298 292 290 294 297 298 295 293 294 281 282 293
123 121 118 117 119 121 119 124 139 161 165 165 160 182 232 268 263 273 284 269 276 300 300 290 302 301 300 302 300 293 300 303 304
126 126 125 123 137 139 173 221 246 235 209 182 264 300 289 283 287 285 295 308 321 311 302 302 292 287 282 294 290 296 294 289 276
141 141 149 154 162 181 225 282 289 273 260 254 271 267 276 282 305 321 327 330 328 322 315 278 278 275 273 282 281 291 293 274 268